全球星 M085星 (GLOBALSTAR M085)

导读 | 星芒AI

GLOBALSTAR M085 是 Globalstar 卫星通信公司运营的一颗低轨道(LEO)通信卫星,属于其第二代卫星星座(Globalstar 2)的一部分。该卫星主要用于提供移动语音和数据通信服务,覆盖全球范围,支持偏远地区的通信需求。M085 采用先进通信技术,具备较高的传输效率和稳定性,广泛应用于海事、航空及陆地移动通信领域。作为 Globalstar 网络的重要节点,它与其他卫星协同工作,确保用户在全球范围内实现可靠通信连接。

基本信息
目录编号:
37742
目录名称:
GLOBALSTAR M085
国际标识:
2011-033D
轨道中心:
EARTH
卫星名称:
全球星 M085星
卫星全名:
全球星 M085星 (GLOBALSTAR M085)
卫星状态:
在轨 (已飞行5270 天)
发射日期:
2011-07-13 UTC
国别 :
(GLOB)
星等 :
--
轨道信息
数据来源 国际轨道数据 AOE轨道数据
星历时间 2025-12-15T17:24:57+0800
15小时前
查看轨道信息
2025-12-14T03:00:00+0800
2天前
查看轨道信息
半长轴 7791.738km 7791.738km
偏心率 0.0000267 0.0000283
轨道倾角 52.014° 52.014°
近地点辐角 157.415° 192.036°
升交点赤经 32.597° 37.468°
平近点角 215.831° 103.994°
近地点 1413.394km 1413.382km
远地点 1413.812km 1413.824km
周期 114.080分钟 114.080分钟
每日圈数 12.622673 12.622672
详细信息
固有亮度:
5
最大亮度:
7.2
平衡模式:
三轴稳定
覆盖范围:
全球
运营商:
全球星公司
运营商所在国:
美国
使用方式:
暂无
卫星简介
全球星星座由48颗卫星加8颗备份星组成。这些卫星分布在8个倾角为52度的圆形轨道平面上,每个轨道平面6颗卫星,另有1 颗备用星。轨道高度约为1414km,传输时延和处理时延小于300ms,整个系统的覆盖区为南北纬70度以内的地区。该卫星已退役。
2D轨道图
3D轨道图
轨道高度分析图
轨道倾角分析图
轨道综合分析图
查看轨道综合分析图